Location: Cactus School
(34.5700°N, 118.0931°W)
Time: 22:28:43
(UTC-08:00)

A-11 Canister half - All Passes

Search period start: 11 November 2019 00:00
Search period end: 21 November 2019 00:00
Orbit: 1514 x 1686 km, 47.2° (Epoch: 11 November)

Date Brightness Start Highest point End Pass type
(mag) Time Alt. Az. Time Alt. Az. Time Alt. Az.
11 Nov - 01:34:16 10° NW 01:44:20 74° NNE 01:54:00 10° ESE visible
11 Nov - 03:40:02 10° WNW 03:48:49 38° SW 03:57:20 10° SSE visible
11 Nov - 16:50:30 10° S 16:57:51 23° SE 17:05:16 10° ENE daylight
11 Nov - 18:51:44 10° SW 19:01:51 81° SE 19:12:03 10° NE visible
11 Nov - 20:57:56 10° W 21:07:41 48° NNW 21:17:23 10° NE visible
11 Nov - 23:05:24 10° WNW 23:14:51 41° N 23:24:05 10° ENE visible
12 Nov - 01:11:18 10° NW 01:21:22 71° NNE 01:31:03 10° ESE visible
12 Nov - 03:16:59 10° WNW 03:25:57 41° SW 03:34:39 10° SSE visible
12 Nov - 16:28:02 10° S 16:35:00 21° SE 16:42:00 10° E daylight
12 Nov - 18:28:50 10° SW 18:38:54 77° SE 18:49:05 10° ENE visible
12 Nov - 20:34:51 10° W 20:44:38 50° NNW 20:54:24 10° NE visible
12 Nov - 22:42:21 10° WNW 22:51:47 41° N 23:01:01 10° ENE visible
13 Nov - 00:48:19 10° NW 00:58:23 68° NNE 01:08:05 10° ESE visible
13 Nov - 02:53:55 10° WNW 03:03:05 44° SW 03:11:57 10° SSE visible
13 Nov - 16:05:39 10° SSE 16:12:08 20° ESE 16:18:42 10° E daylight
13 Nov - 18:05:57 10° SW 18:15:58 73° SE 18:26:07 10° ENE visible
13 Nov - 20:11:46 10° W 20:21:36 51° NNW 20:31:25 10° NE visible
13 Nov - 22:19:16 10° WNW 22:28:42 40° N 22:37:57 10° ENE visible
14 Nov - 00:25:20 10° NW 00:35:24 65° NNE 00:45:06 10° ESE night (unlit)
14 Nov - 02:30:52 10° WNW 02:40:13 47° SW 02:49:14 10° SSE visible
14 Nov - 15:43:20 10° SSE 15:49:18 18° ESE 15:55:20 10° E daylight
14 Nov - 17:43:05 10° SW 17:53:02 69° SE 18:03:07 10° ENE visible
14 Nov - 19:48:41 10° W 19:58:33 53° NNW 20:08:26 10° NE visible
14 Nov - 21:56:12 10° WNW 22:05:38 40° N 22:14:53 10° ENE visible
15 Nov - 00:02:21 10° NW 00:12:23 63° NNE 00:22:06 10° ESE night (unlit)
15 Nov - 02:07:50 10° WNW 02:17:20 51° SW 02:26:30 10° SSE visible
15 Nov - 15:21:05 10° SSE 15:26:28 16° ESE 15:31:52 10° E daylight
15 Nov - 17:20:14 10° SW 17:30:06 65° SE 17:40:08 10° ENE visible
15 Nov - 19:25:37 10° W 19:35:31 55° NNW 19:45:28 10° NE visible
15 Nov - 21:33:07 10° WNW 21:42:33 40° N 21:51:50 10° ENE visible
15 Nov - 23:39:22 10° NW 23:49:24 60° NNE 23:59:06 10° ESE night (unlit)
16 Nov - 01:44:49 10° WNW 01:54:27 54° SW 02:03:44 10° SSE visible
16 Nov - 03:55:45 10° WSW 03:57:46 11° WSW 03:59:48 10° SW visible
16 Nov - 14:59:00 10° SSE 15:03:37 14° ESE 15:08:17 10° E daylight
16 Nov - 16:57:24 10° SSW 17:07:11 61° SE 17:17:09 10° ENE visible
16 Nov - 19:02:34 10° WSW 19:12:29 57° NNW 19:22:29 10° NE visible
16 Nov - 21:10:03 10° WNW 21:19:28 40° N 21:28:47 10° ENE visible
16 Nov - 23:16:23 10° NW 23:26:23 58° NNE 23:36:05 10° ESE night (unlit)
17 Nov - 01:21:47 10° WNW 01:31:33 58° SW 01:40:58 10° SSE night (unlit)
17 Nov - 03:31:26 10° W 03:34:57 12° WSW 03:38:27 10° SW visible
17 Nov - 14:37:06 10° SE 14:40:47 13° ESE 14:44:29 10° E daylight
17 Nov - 16:34:35 10° SSW 16:44:16 58° SE 16:54:08 10° ENE daylight
17 Nov - 18:39:31 10° WSW 18:49:27 59° NNW 18:59:31 10° NE visible
17 Nov - 20:46:58 10° WNW 20:56:23 40° N 21:05:43 10° ENE visible
17 Nov - 22:53:24 10° NW 23:03:22 56° NNE 23:13:04 10° E visible
18 Nov - 00:58:47 10° WNW 01:08:39 62° SW 01:18:10 10° SSE night (unlit)
18 Nov - 03:07:38 10° W 03:12:08 14° WSW 03:16:35 10° SSW visible
18 Nov - 14:15:39 10° SE 14:17:58 11° ESE 14:20:16 10° ESE daylight
18 Nov - 16:11:47 10° SSW 16:21:21 54° SE 16:31:08 10° ENE daylight
18 Nov - 18:16:29 10° WSW 18:26:27 61° NNW 18:36:32 10° NE visible
18 Nov - 20:23:53 10° WNW 20:33:18 40° N 20:42:39 10° ENE visible
18 Nov - 22:30:24 10° NW 22:40:20 54° NNE 22:50:02 10° E visible
19 Nov - 00:35:47 10° WNW 00:45:44 66° SW 00:55:21 10° SE night (unlit)
19 Nov - 02:44:03 10° W 02:49:18 16° WSW 02:54:30 10° SSW night (unlit)
19 Nov - 15:49:01 10° SSW 15:58:27 51° SE 16:08:05 10° ENE daylight
19 Nov - 17:53:28 10° WSW 18:03:26 64° NNW 18:13:33 10° NE visible
19 Nov - 20:00:48 10° WNW 20:10:12 40° N 20:19:37 10° ENE visible
19 Nov - 22:07:24 10° NW 22:17:18 52° NNE 22:26:59 10° E visible
20 Nov - 00:12:47 10° WNW 00:22:49 70° SW 00:32:31 10° SE night (unlit)
20 Nov - 02:20:35 10° W 02:26:28 18° WSW 02:32:17 10° SSW night (unlit)
20 Nov - 15:26:17 10° SSW 15:35:33 47° SE 15:45:04 10° ENE daylight
20 Nov - 17:30:27 10° WSW 17:40:25 66° NNW 17:50:36 10° NE visible
20 Nov - 19:37:42 10° WNW 19:47:08 41° N 19:56:33 10° ENE visible
20 Nov - 21:44:24 10° NW 21:54:16 51° NNE 22:03:55 10° E visible
